Location: Archemont
(49.1579°N, 1.7598°E)
Time: 09:47:28
(UTC+00:00)

deb Explorer IX - Pass Details

Date: 16 April 2024
Orbit: 513 x 891 km, 38.7° (Epoch: 23 May)

Event Time Altitude Azimuth Distance (km) Brightness Sun altitude
Rises 17:50:50 0° 262° (W) 3,444 ? 8.2°
Reaches altitude 10° 17:55:29 10° 230° (SW) 2,422 ? 7.5°
Maximum altitude 17:57:09 11° 213° (SSW) 2,298 ? 7.2°
Drops below altitude 10° 17:58:46 10° 196° (SSW) 2,349 ? 6.9°
Sets 18:03:04 0° 163° (SSE) 3,162 ? 6.2°
